Flag for U.S.A. Weather past 2 weeks in Lowell, Massachusetts, U.S.A.

Now
39 °F

Light rain. Fog.


Feels Like: 31 °F
Forecast: 33 / 45 °F
Wind: 13 mph from Northwest

Location: Hanscom Field


UV Index: 5 (Moderate)

Visibility: 4 mi


Pressure: 29.81 "Hg

Humidity: 100%

Dew point: 39 °F

Location of LowellLocation

Historic Weather in Lowell

°F

Lowell temperature yesterday

Maximum temperature yesterday: 65 °F (at 12:56 PM)
Minimum temperature yesterday: 42 °F (at 11:56 PM)
Average temperature yesterday: 60 °F

Past Weeks' High & Low Weather Summary

 TemperatureHumidityPressure
High76 °F (Apr 14, 11:56 AM)100% (Apr 2, 4:56 AM)30.30 "Hg (Apr 2, 4:56 AM)
Low26 °F (Apr 3, 5:56 AM)17% (Apr 10, 1:56 PM)29.33 "Hg (Apr 8, 4:56 PM)
Average48 °F65%29.98 "Hg
* Reported Apr 1 12:56 AM — Apr 16 12:56 AM, Lowell, Weather by CustomWeather, © 2014

Note: Actual official high and low records may vary slightly from our data, if they occured in-between our weather recording intervals... More about our weather records

Advertising

Historic Weather Conditions — Data for Previous 24 hours

 ConditionsComfort  
Time TempWeatherWind HumidityBarometerVisibility
12:56 AM
Apr 16
39 °FLight rain. Fog.13 mph100%29.81 "Hg4 mi
11:56 PM
Apr 15
42 °FRain. Fog.12 mph100%29.75 "Hg4 mi
10:56 PM46 °FRain. Fog.13 mphN/A29.73 "Hg3 mi
9:56 PM50 °FLight rain. Fog.15 mph96%29.67 "Hg10 mi
9:03 PM57 °FLight rain. Fog.15 mph100%29.60 "Hg4 mi
6:56 PM62 °FLight rain. Fog.21 mph93%29.59 "Hg10 mi
5:56 PM63 °FLight rain. Fog.18 mph93%29.60 "Hg10 mi
5:03 PM63 °FLight rain. Fog.20 mph93%29.57 "Hg10 mi
4:56 PM63 °FLight rain. Fog.29 mph90%29.60 "Hg2 mi
4:03 PM61 °FLight rain. Mostly cloudy.16 mph100%29.58 "Hg8 mi
3:56 PM61 °FLight rain. More clouds than sun.21 mph100%29.62 "Hg8 mi
3:03 PM61 °FLight rain. Cloudy.18 mph97%29.60 "Hg9 mi
1:56 PM61 °FLight rain. Fog.18 mph97%29.68 "Hg6 mi
12:56 PM65 °FCloudy.22 mph78%29.70 "Hg10 mi
11:56 AM64 °FOvercast.17 mph84%29.73 "Hg10 mi
11:03 AM62 °FOvercast.16 mph93%29.74 "Hg10 mi
10:03 AM61 °FLight rain. Fog.15 mph100%29.75 "Hg3 mi
8:56 AM60 °FOvercast.15 mph96%29.82 "Hg10 mi
8:03 AM60 °FOvercast.15 mph96%29.80 "Hg10 mi
7:56 AM60 °FFog.14 mph96%29.83 "Hg2 mi
6:56 AM60 °FLight rain. Fog.14 mph96%29.85 "Hg2 mi
5:56 AM61 °FOvercast.16 mph90%29.87 "Hg10 mi
4:56 AM62 °FOvercast.17 mph86%29.88 "Hg10 mi
3:56 AM63 °FOvercast.18 mph84%29.89 "Hg10 mi
2:56 AM63 °FOvercast.17 mph84%29.89 "Hg10 mi
1:56 AM63 °FOvercast.17 mph84%29.90 "Hg10 mi
Weather by CustomWeather, © 2014

See weather overview